Location: Newark
(15.4608°S, 41.1635°W)
Time: 20:07:29
(UTC+00:00)

N. Korean satellite - Pass Details

Date: 23 June 2021
Orbit: 451 x 497 km, 97.2° (Epoch: 28 July)

Event Time Altitude Azimuth Distance (km) Brightness Sun altitude
Rises 08:03:43 0° 350° (N) 2,569 10.4 -15.8°
Reaches altitude 10° 08:06:00 10° 338° (NNW) 1,694 9.3 -15.3°
Maximum altitude 08:09:07 27° 279° (W) 999 7.6 -14.6°
Enters shadow 08:09:45 25° 261° (W) 1,037 7.6 -14.4°
